Weather in Lopukhovka

Russia / Saratov Oblast     51°59′30″N   44°42′00″E
temp.,
°C
wind,
m/s
gust,
m/s
humid.,
%
clouds,
%
prec.,
mm/h
press.,
hPa
HPBL,
m
18 april, sun
sun1801:00+8w2491100 0.1 1019145
04:00+6wnw35940 0.1 1020121
07:00+6nw36920 0.0 1019191
10:00+11nw45665 0.0 1019640
13:00+14nw3348100 0.0 10181435
16:00+15nnw334278 0.0 10181756
19:00+12n2374100 0.2 1018222
22:00+10ne3483100 0.6 1018112
19 april, mon
mon1901:00+9ene2687100 1.2 1018191
04:00+9ene3973100 1.4 1017337
07:00+8ene41075100 0.0 1017494
10:00+7e61086100 0.9 1018593
13:00+8e61080100 0.7 1018811
16:00+8e41085100 0.9 1018769
19:00+7ene61288100 0.1 1018735
22:00+6e71292100 0.4 1018737
20 april, tue
tue2001:00+5e71292100 1.1 1019571
04:00+4e71393100 2.5 1019596
07:00+4e91492100 1.0 1019535
10:00+3ese91591100 1.1 1020575
13:00+4ese91683100 0.4 1020661
16:00+4ese101881100 0.7 1019693
19:00+5ese112182100 0.7 1016786
22:00+6ese122291100 4.0 1015828
21 april, wed
wed2101:00+6se122293100 8.3 1013922
04:00+6se122189100 10.1 1013969
07:00+6se122190100 0.1 1012795
10:00+6sse101695100 0.5 10141008
13:00+9sse71287100 0.1 10151001
16:00+11s5973100 0.4 10161101
19:00+9sse6891100 0.5 1018346
22:00+7sse51196100 0.6 1020381
22 april, thu
thu2201:00+7sse589699 0.0 1020399
04:00+6sse479888 0.3 1021247
07:00+7s359468 0.1 1022241
10:00+11ssw35685 0.1 1023765
13:00+14sw454864 0.1 10231972
16:00+14sw4544100 0.1 10232062
19:00+12sse3461100 0.0 102363
22:00+11sse3471100 0.0 102484